Red Wing, WI

2:15 AM CDT on April 20, 2018 (GMT -0500)
Red Wing Municipal

Weather History for KRGK - October, 2013

Change the Weather History Date:

Friday, October 25, 2013

  Actual Average Record
Temperature  
Mean Temperature 42 °F -  
Max Temperature 57 °F 52 °F 69 °F (2000)
Min Temperature 26 °F 36 °F 26 °F (2013)
Degree Days  
Heating Degree Days 24    
Moisture  
Dew Point 31 °F    
Average Humidity 65    
Maximum Humidity 100    
Minimum Humidity 41    
Precipitation  
Precipitation 0.00 in - - ()
Sea Level Pressure  
Sea Level Pressure 30.09 in    
Wind  
Wind Speed 5 mph (SW)    
Max Wind Speed 23 mph    
Max Gust Speed 34 mph    
Visibility 10 miles    
Events      
Averages and records for this station are not official NWS values.
T = Trace of Precipitation, MM = Missing Value Source: NWS Daily Summary

Daily Weather History Graph

Daily Weather History Graph

Search for Another Location

Airport or City:

Astronomy

Oct. 25, 2013 Rise Set
Actual Time 7:38 AM CDT 6:08 PM CDT
Civil Twilight 7:08 AM CDT 6:38 PM CDT
Nautical Twilight 6:34 AM CDT 7:12 PM CDT
Astronomical Twilight 6:00 AM CDT 7:46 PM CDT
Moon 11:25 PM CDT (10/25) 1:23 PM CDT (10/25)
Length of Visible Light 11h 30m
Length of Day
10h 30m
Waning Gibbous, 62% of the Moon is Illuminated
Oct 25
Waning Gibbous
Oct 26
Last Quarter
Nov 3
New
Nov 9
First Quarter
Nov 17
Full

Hourly Weather History & Observations

Time (CDT) Temp. Windchill Dew Point Humidity Pressure Visibility Wind Dir Wind Speed Gust Speed Precip Events Conditions
12:15 AM 35.6 °F - 28.4 °F 75% 30.30 in 10.0 mi Calm Calm - N/A   Overcast
12:35 AM 35.6 °F - 30.2 °F 81% 30.30 in 10.0 mi Calm Calm - N/A   Overcast
12:55 AM 37.4 °F - 28.4 °F 70% 30.31 in 10.0 mi Calm Calm - N/A   Overcast
1:15 AM 35.6 °F 32.8 °F 28.4 °F 75% 30.31 in 10.0 mi West 3.5 mph - N/A   Overcast
1:35 AM 35.6 °F 32.8 °F 28.4 °F 75% 30.31 in 10.0 mi WNW 3.5 mph - N/A   Overcast
1:55 AM 35.6 °F - 28.4 °F 75% 30.31 in 10.0 mi Calm Calm - N/A   Overcast
2:14 AM 35.6 °F - 28.4 °F 75% 30.31 in 10.0 mi Calm Calm - N/A   Overcast
2:35 AM 33.8 °F - 28.4 °F 81% 30.31 in 10.0 mi Calm Calm - N/A   Scattered Clouds
2:55 AM 32.0 °F - 28.4 °F 87% 30.31 in 10.0 mi Calm Calm - N/A   Clear
3:14 AM 32.0 °F - 28.4 °F 87% 30.31 in 10.0 mi Calm Calm - N/A   Mostly Cloudy
3:35 AM 32.0 °F - 28.4 °F 87% 30.31 in 10.0 mi Calm Calm - N/A   Overcast
3:55 AM 32.0 °F - 28.4 °F 87% 30.31 in 10.0 mi Calm Calm - N/A   Overcast
4:15 AM 32.0 °F - 28.4 °F 87% 30.31 in 10.0 mi Calm Calm - N/A   Overcast
4:35 AM 32.0 °F - 28.4 °F 87% 30.30 in 10.0 mi Calm Calm - N/A   Overcast
4:55 AM 32.0 °F - 28.4 °F 87% 30.30 in 10.0 mi Calm Calm - N/A   Mostly Cloudy
5:15 AM 30.2 °F - 28.4 °F 93% 30.31 in 10.0 mi Calm Calm - N/A   Scattered Clouds
5:35 AM 30.2 °F - 28.4 °F 93% 30.31 in 10.0 mi Calm Calm - N/A   Clear
5:55 AM 30.2 °F - 28.4 °F 93% 30.31 in 10.0 mi Calm Calm - N/A   Clear
6:15 AM 28.4 °F - 26.6 °F 93% 30.31 in 10.0 mi Calm Calm - N/A   Clear
6:35 AM 28.4 °F - 26.6 °F 93% 30.30 in 10.0 mi Calm Calm - N/A   Clear
6:55 AM 26.6 °F - 26.6 °F 100% 30.30 in 10.0 mi Calm Calm - N/A   Clear
7:15 AM 26.6 °F - 24.8 °F 93% 30.30 in 10.0 mi Calm Calm - N/A   Clear
7:35 AM 26.6 °F - 24.8 °F 93% 30.30 in 10.0 mi Calm Calm - N/A   Clear
7:55 AM 26.6 °F - 24.8 °F 93% 30.29 in 10.0 mi Calm Calm - N/A   Clear
8:15 AM 26.6 °F - 26.6 °F 100% 30.29 in 7.0 mi Calm Calm - N/A   Clear
8:35 AM 28.4 °F - 28.4 °F 100% 30.29 in 10.0 mi Calm Calm - N/A   Clear
8:55 AM 32.0 °F - 30.2 °F 93% 30.28 in 10.0 mi Calm Calm - N/A   Clear
9:15 AM 33.8 °F - 30.2 °F 87% 30.28 in 10.0 mi Calm Calm - N/A   Clear
9:35 AM 33.8 °F - 28.4 °F 81% 30.27 in 10.0 mi Calm Calm - N/A   Clear
9:54 AM 35.6 °F - 28.4 °F 75% 30.26 in 10.0 mi Calm Calm - N/A   Clear
10:15 AM 37.4 °F 33.8 °F 28.4 °F 70% 30.24 in 10.0 mi SSE 4.6 mph - N/A   Clear
10:35 AM 39.2 °F 37.0 °F 28.4 °F 65% 30.23 in 10.0 mi South 3.5 mph - N/A   Clear
10:54 AM 42.8 °F 39.3 °F 28.4 °F 57% 30.22 in 10.0 mi SSW 5.8 mph - N/A   Clear
11:15 AM 42.8 °F 37.5 °F 28.4 °F 57% 30.20 in 10.0 mi SSW 9.2 mph - N/A   Clear
11:35 AM 44.6 °F 38.8 °F 28.4 °F 53% 30.19 in 10.0 mi SSW 11.5 mph 16.1 mph N/A   Clear
11:54 AM 46.4 °F 42.4 °F 28.4 °F 50% 30.18 in 10.0 mi SW 8.1 mph 17.3 mph N/A   Clear
12:15 PM 48.2 °F - 28.4 °F 46% 30.15 in 10.0 mi SSW 15.0 mph 18.4 mph N/A   Clear
12:35 PM 48.2 °F - 28.4 °F 46% 30.14 in 10.0 mi SW 13.8 mph 20.7 mph N/A   Mostly Cloudy
12:54 PM 48.2 °F - 30.2 °F 50% 30.12 in 10.0 mi SSW 13.8 mph 18.4 mph N/A   Mostly Cloudy
1:15 PM 48.2 °F - 30.2 °F 50% 30.09 in 10.0 mi SSW 9.2 mph - N/A   Mostly Cloudy
1:35 PM 51.8 °F - 32.0 °F 47% 30.07 in 10.0 mi SW 12.7 mph 19.6 mph N/A   Mostly Cloudy
1:55 PM 50.0 °F - 32.0 °F 50% 30.04 in 10.0 mi SW 15.0 mph 21.9 mph N/A   Overcast
2:15 PM 51.8 °F - 32.0 °F 47% 30.02 in 10.0 mi SSW 16.1 mph 25.3 mph N/A   Scattered Clouds
2:35 PM 53.6 °F - 30.2 °F 41% 30.00 in 10.0 mi SSW 13.8 mph 24.2 mph N/A   Clear
2:55 PM 53.6 °F - 30.2 °F 41% 29.98 in 10.0 mi SW 15.0 mph 21.9 mph N/A   Clear
3:15 PM 55.4 °F - 32.0 °F 41% 29.97 in 10.0 mi WSW 20.7 mph 27.6 mph N/A   Clear
3:35 PM 55.4 °F - 32.0 °F 41% 29.96 in 10.0 mi WSW 13.8 mph 25.3 mph N/A   Clear
3:55 PM 55.4 °F - 33.8 °F 44% 29.94 in 10.0 mi SW 23.0 mph 31.1 mph N/A   Clear
4:15 PM 55.4 °F - 33.8 °F 44% 29.92 in 10.0 mi SW 18.4 mph 25.3 mph N/A   Clear
4:35 PM 55.4 °F - 33.8 °F 44% 29.91 in 10.0 mi SW 10.4 mph 19.6 mph N/A   Clear
4:55 PM 57.2 °F - 33.8 °F 41% 29.89 in 10.0 mi SW 15.0 mph 23.0 mph N/A   Clear
5:15 PM 57.2 °F - 35.6 °F 44% 29.87 in 10.0 mi SW 15.0 mph 23.0 mph N/A   Clear
5:35 PM 55.4 °F - 35.6 °F 47% 29.85 in 10.0 mi SW 13.8 mph 23.0 mph N/A   Clear
5:55 PM 55.4 °F - 35.6 °F 47% 29.83 in 10.0 mi SW 20.7 mph 28.8 mph N/A   Clear
6:15 PM 55.4 °F - 35.6 °F 47% 29.82 in 10.0 mi SW 19.6 mph 28.8 mph N/A   Clear
6:35 PM 55.4 °F - 35.6 °F 47% 29.82 in 10.0 mi SW 18.4 mph 25.3 mph N/A   Clear
6:55 PM 55.4 °F - 35.6 °F 47% 29.82 in 10.0 mi WSW 17.3 mph 29.9 mph N/A   Clear
7:15 PM 55.4 °F - 35.6 °F 47% 29.82 in 10.0 mi WSW 12.7 mph 24.2 mph N/A   Clear
7:35 PM 53.6 °F - 35.6 °F 51% 29.81 in 10.0 mi WSW 15.0 mph 25.3 mph N/A   Clear
7:55 PM 53.6 °F - 35.6 °F 51% 29.82 in 10.0 mi WSW 18.4 mph 29.9 mph N/A   Clear
8:15 PM 55.4 °F - 35.6 °F 47% 29.81 in 10.0 mi WSW 20.7 mph 26.5 mph N/A   Mostly Cloudy
8:35 PM 55.4 °F - 35.6 °F 47% 29.81 in 10.0 mi WSW 23.0 mph 31.1 mph N/A   Overcast
8:55 PM 55.4 °F - 35.6 °F 47% 29.79 in 10.0 mi WSW 20.7 mph 34.5 mph N/A   Overcast
9:15 PM 55.4 °F - 35.6 °F 47% 29.78 in 10.0 mi WSW 17.3 mph 29.9 mph N/A   Overcast
9:35 PM 55.4 °F - 35.6 °F 47% 29.78 in 10.0 mi WSW 17.3 mph 27.6 mph N/A   Overcast
9:55 PM 55.4 °F - 35.6 °F 47% 29.78 in 10.0 mi WSW 17.3 mph 27.6 mph N/A   Mostly Cloudy
10:15 PM 53.6 °F - 35.6 °F 51% 29.78 in 10.0 mi WSW 16.1 mph 25.3 mph N/A   Scattered Clouds
10:35 PM 53.6 °F - 35.6 °F 51% 29.78 in 10.0 mi West 17.3 mph 23.0 mph N/A   Mostly Cloudy
10:55 PM 53.6 °F - 37.4 °F 54% 29.78 in 10.0 mi West 15.0 mph 23.0 mph N/A   Mostly Cloudy
11:15 PM 53.6 °F - 37.4 °F 54% 29.78 in 10.0 mi WNW 5.8 mph 17.3 mph N/A   Mostly Cloudy
11:35 PM 51.8 °F - 37.4 °F 58% 29.77 in 10.0 mi West 8.1 mph - N/A   Scattered Clouds
11:55 PM 51.8 °F - 37.4 °F 58% 29.77 in 10.0 mi WNW 5.8 mph - N/A   Clear